Weather History for KMDZ - January, 2013

Change the Weather History Date:

Wednesday, January 30, 2013

  Actual Average Record
Temperature  
Mean Temperature 20 °F -  
Max Temperature 30 °F 21 °F 38 °F (1988)
Min Temperature 10 °F 1 °F -32 °F (1950)
Degree Days  
Heating Degree Days 45    
Moisture  
Dew Point 16 °F    
Average Humidity 83    
Maximum Humidity 93    
Minimum Humidity 73    
Precipitation  
Precipitation 0.01 in - - ()
Sea Level Pressure  
Sea Level Pressure 29.45 in    
Wind  
Wind Speed 13 mph (NNW)    
Max Wind Speed 18 mph    
Max Gust Speed 29 mph    
Visibility 5 miles    
Events Snow    
Averages and records for this station are not official NWS values.
T = Trace of Precipitation, MM = Missing Value Source: NWS Daily Summary

Daily Weather History Graph

Daily Weather History Graph

Search for Another Location

Airport or City:

Trip Planner

Search our weather history database for the weather conditions in past years. The results will help you decide how hot, cold, wet, or windy it might be!

Date:

Astronomy

Jan. 30, 2013 Rise Set
Actual Time 7:23 AM CST 5:06 PM CST
Civil Twilight 6:51 AM CST 5:37 PM CST
Nautical Twilight 6:16 AM CST 6:13 PM CST
Astronomical Twilight 5:41 AM CST 6:47 PM CST
Moon 9:19 PM CST (1/30) 8:38 AM CST (1/30)
Length of Visible Light 10h 46m
Length of Day
9h 43m
Waning Gibbous, 87% of the Moon is Illuminated
Jan 30
Waning Gibbous
Feb 3
Last Quarter
Feb 10
New
Feb 17
First Quarter
Feb 25
Full

Hourly Weather History & Observations

Time (CST) Temp. Windchill Dew Point Humidity Pressure Visibility Wind Dir Wind Speed Gust Speed Precip Events Conditions
12:35 AM 30.2 °F 20.2 °F 26.6 °F 86% 29.56 in 10.0 mi North 12.7 mph 17.3 mph N/A   Overcast
12:55 AM 30.2 °F 20.8 °F 26.6 °F 86% 29.52 in 10.0 mi North 11.5 mph 21.9 mph N/A   Overcast
1:15 AM 28.4 °F 17.5 °F 24.8 °F 86% 29.51 in 10.0 mi North 13.8 mph 21.9 mph N/A   Overcast
1:35 AM 28.4 °F 17.5 °F 24.8 °F 86% 29.50 in 10.0 mi North 13.8 mph 19.6 mph N/A   Overcast
1:55 AM 28.4 °F 17.0 °F 24.8 °F 86% 29.50 in 10.0 mi North 15.0 mph 19.6 mph N/A   Overcast
2:15 AM 28.4 °F 19.7 °F 23.0 °F 80% 29.49 in 10.0 mi North 9.2 mph 16.1 mph N/A   Overcast
2:35 AM 28.4 °F 19.1 °F 23.0 °F 80% 29.49 in 10.0 mi North 10.4 mph - N/A   Overcast
2:55 AM 26.6 °F 16.2 °F 21.2 °F 80% 29.49 in 10.0 mi North 11.5 mph 19.6 mph N/A   Overcast
3:15 AM 26.6 °F 16.8 °F 21.2 °F 80% 29.48 in 10.0 mi North 10.4 mph 17.3 mph N/A   Overcast
3:35 AM 26.6 °F 16.8 °F 21.2 °F 80% 29.50 in 10.0 mi North 10.4 mph 19.6 mph N/A   Overcast
3:55 AM 26.6 °F 15.7 °F 21.2 °F 80% 29.49 in 10.0 mi North 12.7 mph 19.6 mph N/A   Overcast
4:15 AM 26.6 °F 15.7 °F 21.2 °F 80% 29.51 in 10.0 mi North 12.7 mph 17.3 mph N/A   Overcast
4:35 AM 26.6 °F 15.7 °F 21.2 °F 80% 29.49 in 10.0 mi North 12.7 mph 17.3 mph N/A   Overcast
4:55 AM 26.6 °F 15.7 °F 21.2 °F 80% 29.49 in 10.0 mi North 12.7 mph 21.9 mph N/A   Overcast
5:15 AM 26.6 °F 16.8 °F 21.2 °F 80% 29.50 in 10.0 mi North 10.4 mph 17.3 mph N/A   Overcast
5:35 AM 26.6 °F 16.2 °F 21.2 °F 80% 29.48 in 10.0 mi North 11.5 mph 17.3 mph N/A   Overcast
6:15 AM 26.6 °F 16.2 °F 21.2 °F 80% 29.46 in 7.0 mi North 11.5 mph 17.3 mph N/A Snow Light Snow
6:35 AM 24.8 °F 14.6 °F 21.2 °F 86% 29.47 in 3.0 mi North 10.4 mph - N/A Snow Light Snow
6:55 AM 24.8 °F 12.9 °F 21.2 °F 86% 29.45 in 5.0 mi North 13.8 mph 17.3 mph N/A Snow Light Snow
7:15 AM 24.8 °F 14.0 °F 21.2 °F 86% 29.45 in 4.0 mi North 11.5 mph 20.7 mph N/A Snow Light Snow
7:35 AM 24.8 °F 12.4 °F 21.2 °F 86% 29.44 in 10.0 mi North 15.0 mph 19.6 mph N/A   Overcast
7:55 AM 24.8 °F 13.4 °F 19.4 °F 80% 29.44 in 10.0 mi North 12.7 mph 19.6 mph N/A   Overcast
8:15 AM 24.8 °F 14.6 °F 19.4 °F 80% 29.43 in 10.0 mi North 10.4 mph 16.1 mph N/A   Overcast
8:35 AM 24.8 °F 14.6 °F 21.2 °F 86% 29.42 in 2.5 mi North 10.4 mph - N/A Snow Light Snow
8:55 AM 24.8 °F 15.3 °F 21.2 °F 86% 29.42 in 1.2 mi North 9.2 mph - N/A Snow Light Snow
9:15 AM 24.8 °F 15.3 °F 21.2 °F 86% 29.44 in 0.8 mi NNW 9.2 mph - N/A Snow Light Snow
9:35 AM 24.8 °F 14.6 °F 21.2 °F 86% 29.43 in 0.8 mi North 10.4 mph - N/A Snow Light Snow
9:55 AM 23.0 °F 11.7 °F 21.2 °F 93% 29.42 in 0.8 mi North 11.5 mph - N/A Snow Light Snow
10:15 AM 23.0 °F 13.1 °F 21.2 °F 93% 29.41 in 0.5 mi North 9.2 mph - N/A Snow Snow
10:35 AM 23.0 °F 13.1 °F 19.4 °F 86% 29.42 in 0.8 mi North 9.2 mph 16.1 mph N/A Snow Light Snow
10:55 AM 23.0 °F 10.6 °F 19.4 °F 86% 29.43 in 0.5 mi NNW 13.8 mph 19.6 mph N/A Snow Light Snow
11:15 AM 23.0 °F 12.4 °F 19.4 °F 86% 29.42 in 1.0 mi NNW 10.4 mph 17.3 mph N/A Snow Light Snow
11:55 AM 21.2 °F 8.9 °F 19.4 °F 93% 29.40 in 0.5 mi NNW 12.7 mph - N/A Snow Light Snow
12:15 PM 21.2 °F 10.9 °F 19.4 °F 93% 29.40 in 0.8 mi NW 9.2 mph - N/A Snow Light Snow
12:35 PM 21.2 °F 8.3 °F 19.4 °F 93% 29.39 in 0.5 mi NW 13.8 mph 19.6 mph N/A Snow Light Snow
12:55 PM 21.2 °F 7.8 °F 17.6 °F 86% 29.39 in 1.0 mi NNW 15.0 mph 20.7 mph N/A Snow Light Snow
1:15 PM 21.2 °F 8.3 °F 17.6 °F 86% 29.38 in 1.5 mi NNW 13.8 mph 19.6 mph N/A Snow Light Snow
1:35 PM 21.2 °F 6.4 °F 17.6 °F 86% 29.38 in 0.8 mi NW 18.4 mph 21.9 mph N/A Snow Light Snow
1:55 PM 21.2 °F 8.9 °F 17.6 °F 86% 29.38 in 1.2 mi NW 12.7 mph 18.4 mph N/A Snow Light Snow
2:15 PM 21.2 °F 8.3 °F 17.6 °F 86% 29.38 in 1.0 mi NNW 13.8 mph 18.4 mph N/A Snow Light Snow
2:35 PM 19.4 °F 4.5 °F 15.8 °F 86% 29.39 in 1.0 mi NNW 17.3 mph 24.2 mph N/A Snow Light Snow
2:55 PM 19.4 °F 5.5 °F 15.8 °F 86% 29.40 in 0.8 mi NW 15.0 mph 24.2 mph N/A Snow Light Snow
3:15 PM 19.4 °F 4.5 °F 14.0 °F 80% 29.41 in 1.0 mi NNW 17.3 mph 28.8 mph N/A Snow Light Snow
3:35 PM 19.4 °F 5.5 °F 14.0 °F 80% 29.41 in 1.2 mi NNW 15.0 mph 24.2 mph N/A Snow Light Snow
3:55 PM 17.6 °F 1.7 °F 14.0 °F 86% 29.42 in 1.2 mi NNW 18.4 mph 24.2 mph N/A Snow Light Snow
4:15 PM 17.6 °F 2.7 °F 12.2 °F 79% 29.42 in 1.5 mi NNW 16.1 mph 20.7 mph N/A Snow Light Snow
4:35 PM 17.6 °F 3.7 °F 12.2 °F 79% 29.43 in 2.0 mi NW 13.8 mph 21.9 mph N/A Snow Light Snow
4:55 PM 15.8 °F 2.7 °F 12.2 °F 86% 29.43 in 2.5 mi NW 11.5 mph 21.9 mph N/A Snow Light Snow
5:15 PM 15.8 °F 0.9 °F 10.4 °F 79% 29.44 in 2.5 mi NW 15.0 mph 23.0 mph 0.01 in Snow Light Snow
5:35 PM 15.8 °F 2.1 °F 10.4 °F 79% 29.44 in 2.5 mi NW 12.7 mph - N/A Snow Light Snow
5:55 PM 15.8 °F 0.3 °F 10.4 °F 79% 29.45 in 2.5 mi NW 16.1 mph 25.3 mph N/A Snow Light Snow
6:15 PM 15.8 °F -0.2 °F 10.4 °F 79% 29.45 in 4.0 mi NW 17.3 mph 21.9 mph N/A Snow Light Snow
6:35 PM 14.0 °F -2.5 °F 8.6 °F 79% 29.45 in 5.0 mi NW 17.3 mph 23.0 mph N/A Snow Light Snow
6:55 PM 14.0 °F -0.2 °F 8.6 °F 79% 29.46 in 7.0 mi NW 12.7 mph 20.7 mph N/A   Overcast
7:15 PM 14.0 °F -0.2 °F 8.6 °F 79% 29.46 in 7.0 mi NW 12.7 mph 19.6 mph N/A   Overcast
7:35 PM 12.2 °F -3.1 °F 8.6 °F 85% 29.47 in 5.0 mi WNW 13.8 mph - N/A Snow Light Snow
7:55 PM 14.0 °F 1.2 °F 8.6 °F 79% 29.47 in 4.0 mi NW 10.4 mph - N/A Snow Light Snow
8:15 PM 14.0 °F 0.5 °F 10.4 °F 86% 29.47 in 3.0 mi NW 11.5 mph - N/A Snow Light Snow
8:35 PM 14.0 °F 0.5 °F 8.6 °F 79% 29.47 in 4.0 mi NW 11.5 mph 19.6 mph N/A Snow Light Snow
8:55 PM 14.0 °F -0.2 °F 8.6 °F 79% 29.48 in 10.0 mi NW 12.7 mph 19.6 mph N/A   Overcast
9:15 PM 14.0 °F 0.5 °F 8.6 °F 79% 29.48 in 7.0 mi WNW 11.5 mph 16.1 mph N/A Snow Light Snow
9:35 PM 12.2 °F -3.1 °F 8.6 °F 85% 29.48 in 4.0 mi WNW 13.8 mph 17.3 mph N/A Snow Light Snow
9:55 PM 12.2 °F -2.5 °F 8.6 °F 85% 29.49 in 2.0 mi WNW 12.7 mph - N/A Snow Light Snow
10:15 PM 12.2 °F -1.8 °F 8.6 °F 85% 29.49 in 3.0 mi WNW 11.5 mph - N/A Snow Light Snow
10:35 PM 12.2 °F -1.8 °F 6.8 °F 79% 29.50 in 2.5 mi WNW 11.5 mph 17.3 mph N/A Snow Light Snow
10:55 PM 10.4 °F -5.4 °F 6.8 °F 85% 29.51 in 3.0 mi NW 13.8 mph - N/A Snow Light Snow
11:15 PM 10.4 °F -3.3 °F 6.8 °F 85% 29.51 in 7.0 mi WNW 10.4 mph - N/A Snow Light Snow
11:35 PM 10.4 °F -4.8 °F 6.8 °F 85% 29.52 in 5.0 mi WNW 12.7 mph 20.7 mph N/A Snow Light Snow
11:55 PM 10.4 °F -6.6 °F 3.2 °F 73% 29.53 in 5.0 mi WNW 16.1 mph 23.0 mph N/A   Haze